Regional Weather Roundup
Issued by NWS Jackson, KY

Home | Current Version | Previous Version | Graphics & Text | Print | Product List | Glossary On
Versions: 1 2 3 4 5 6 7 8 9 10 11 12 13 14 15 16 17 18 19 20 21 22 23 24 25 26 27
000
ASUS43 KJKL 280110
RWRJKL

EAST KENTUCKY HOURLY WEATHER ROUNDUP
NATIONAL WEATHER SERVICE JACKSON KY
900 PM EDT FRI MAY 27 2016

NOTE: "FAIR" INDICATES FEW OR NO CLOUDS BELOW 12,000 FEET WITH
NO SIGNIFICANT WEATHER AND/OR OBSTRUCTIONS TO VISIBILITY.

* THESE REPORTS ARE NOT UNDER NWS QUALITY CONTROL AND MAY NOT
  REPORT WEATHER SUCH AS PRECIPITATION AND FOG.

KYZ079-080-083-085-087-088-110-112-115-119-120-280200
...EASTERN KENTUCKY...

CITY           SKY/WX    TMP DP  RH WIND       PRES   REMARKS
JACKSON        MOCLDY    69  65  86 VRB5      30.09R
LONDON         MOCLDY    73  65  75 E5        30.05R
SOMERSET*      CLEAR     73  64  73 CALM      30.03R
MONTICELLO*    PTCLDY    72  69  90 N13       30.03R
WILLIAMSBURG*  MOCLDY    64  63  94 CALM      30.05R
MIDDLESBORO*   CLOUDY    68  67  96 SW3       30.08R
HARLAN APT*    CLOUDY    68  63  83 CALM      30.09R
HAZARD APT*    HVY RAIN  68  68 100 N5        30.09R
PIKE CO APT*   MOCLDY    70  66  85 S3        30.09R
BIG SANDY APT* MOCLDY    75  68  78 SW3       30.07R
MOREHEAD APT*  PTCLDY    77  66  69 SE3       30.04R
ASHLAND*       MOCLDY    75  70  83 E3        29.99R
$$

KYZ035-036-041-042-044-050-067-078-099-280200
...CENTRAL KENTUCKY...

CITY           SKY/WX    TMP DP  RH WIND       PRES   REMARKS
MT STERLING*   CLOUDY    81  64  57 SE3       30.03R
FLEMING/MASON* CLOUDY    78  65  62 CALM      30.02S
DANVILLE*      CLOUDY    73  64  73 SW3       30.02
RICHMOND*      CLOUDY    79  66  65 SW7       30.02R
LEXINGTON      CLEAR     80  64  58 S3        30.00S
FRANKFORT      CLEAR     79  66  64 SE5       29.98R
LOUISVILLE     MOCLDY    82  65  56 SE7       29.95R
LEBANON*         N/A     79  68  69 E5        29.99S
GLASGOW*       CLOUDY    71  67  88 CALM      29.98R
BOWLING GREEN  CLOUDY    78  66  66 CALM      29.96R
$$

KYZ091>093-OHZ055-061-077-WVZ005-015-034-035-042-280200
...SOUTHERN OHIO/WEST VIRGINIA...

CITY           SKY/WX    TMP DP  RH WIND       PRES   REMARKS
COVINGTON      MOCLDY    76  66  71 S7        29.99R
COLUMBUS       MOCLDY    82  62  50 S6        29.99R
DAYTON         MOCLDY    79  61  53 S7        30.00R
WILMINGTON     PTCLDY    77  64  64 S5        30.00R
HUNTINGTON       N/A     80  66  62 E3        30.01R
CHARLESTON     MOCLDY    75  61  61 E5        30.05R
PINEVILLE*       N/A     68  65  90 MISG      30.14F FOG
BECKLEY          N/A     69  61  75 SE3       30.15R
BLUEFIELD      MOCLDY    72  59  63 S6        30.17R
LOGAN CO APT*    N/A     75  63  64 E3        30.07S
$$

VAZ002-007-008-TNZ017-027-036-066-071-280200
...SOUTHWEST VIRGINIA/EAST TENNESSEE...

CITY           SKY/WX    TMP DP  RH WIND       PRES   REMARKS
WISE*          CLOUDY    66  63  88 CALM      30.16R
JONESVILLE*      N/A     70  66  88 CALM      30.11R
ABINGDON*        N/A     69  68  96 E3        30.13R
BRISTOL        CLOUDY    69  67  93 CALM      30.10R
SEVIERVILLE*   PTCLDY    73  64  73 CALM      30.04R
KNOXVILLE      MOCLDY    72  67  84 E6        30.03R
OAK RIDGE      PTCLDY    74  68  81 CALM      30.05R
CROSSVILLE     CLOUDY    72  66  81 CALM      30.07R
NASHVILLE      CLOUDY    81  63  54 SW3       29.96R
$$

...KEY TO REMARKS...
VSB - VISIBILITY IN MILES
WCI - WIND CHILL INDEX
HX  - HEAT INDEX

$$




USA.gov is the U.S. government's official web portal to all federal, state and local government web resources and services.